| time (UTC) | temp F | wind direction | speed MPH | gust MPH | rain 1hr in | rain 24hr in | rain mn in | humidity % | barometer mb |
| 20260507123030 | 48 | 89 | 9.0 | 16.0 | 0.00 | 0.00 | 0.00 | 68 | 1005.8 |
| 20260507121523 | 48 | 83 | 11.0 | 20.0 | 0.00 | 0.00 | 0.00 | 67 | 1005.6 |
| 20260507120029 | 49 | 83 | 11.0 | 17.0 | 0.00 | 0.00 | 0.00 | 65 | 1005.3 |
| 20260507114516 | 50 | 65 | 13.0 | 21.0 | 0.00 | 0.00 | 0.00 | 62 | 1005.3 |
| 20260507113026 | 51 | 102 | 10.0 | 19.0 | 0.00 | 0.00 | 0.00 | 58 | 1005.1 |
| 20260507111507 | 55 | 83 | 10.0 | 15.0 | 0.00 | 0.00 | 0.00 | 49 | 1004.7 |
| 20260507110004 | 59 | 49 | 4.0 | 8.0 | 0.00 | 0.00 | 0.00 | 48 | 1004.3 |
| 20260507104503 | 62 | 65 | 4.0 | 6.0 | 0.00 | 0.00 | 0.00 | 34 | 1004.3 |
| 20260507103100 | 62 | 76 | 4.0 | 6.0 | 0.00 | 0.00 | 0.00 | 36 | 1003.9 |
| 20260507101559 | 62 | 76 | 3.0 | 5.0 | 0.00 | 0.00 | 0.00 | 35 | 1004.0 |
| 20260507094611 | 62 | 71 | 4.0 | 8.0 | 0.00 | 0.00 | 0.00 | 35 | 1003.9 |
| 20260507093057 | 62 | 67 | 3.0 | 6.0 | 0.00 | 0.00 | 0.00 | 33 | 1003.8 |
| 20260507091555 | 63 | 65 | 3.0 | 5.0 | 0.00 | 0.00 | 0.00 | 34 | 1003.8 |
| 20260507090055 | 63 | 72 | 3.0 | 5.0 | 0.00 | 0.00 | 0.00 | 35 | 1003.9 |
| 20260507084559 | 63 | 72 | 4.0 | 8.0 | 0.00 | 0.00 | 0.00 | 34 | 1004.0 |
| 20260507083053 | 62 | 96 | 3.0 | 4.0 | 0.00 | 0.00 | 0.00 | 47 | 1004.1 |
| 20260507081552 | 62 | 96 | 2.0 | 6.0 | 0.00 | 0.00 | 0.00 | 48 | 1004.1 |
| 20260507080053 | 62 | 97 | 2.0 | 7.0 | 0.00 | 0.00 | 0.00 | 48 | 1004.3 |
| 20260507074552 | 62 | 96 | 3.0 | 6.0 | 0.00 | 0.00 | 0.00 | 49 | 1004.3 |
| 20260507073051 | 62 | 121 | 4.0 | 8.0 | 0.00 | 0.00 | 0.00 | 49 | 1004.3 |
| 20260507071548 | 62 | 108 | 5.0 | 8.0 | 0.00 | 0.00 | 0.00 | 51 | 1004.2 |
| 20260507070057 | 62 | 107 | 4.0 | 9.0 | 0.00 | 0.00 | 0.00 | 53 | 1004.1 |
| 20260507064547 | 62 | 97 | 5.0 | 10.0 | 0.00 | 0.00 | 0.00 | 56 | 1004.1 |
| 20260507063046 | 62 | 153 | 3.0 | 11.0 | 0.00 | 0.00 | 0.00 | 55 | 1004.2 |
| 20260507061541 | 63 | 98 | 4.0 | 6.0 | 0.00 | 0.00 | 0.00 | 52 | 1004.1 |
| 20260507060043 | 64 | 67 | 4.0 | 5.0 | 0.00 | 0.00 | 0.00 | 46 | 1003.9 |
| 20260507054539 | 64 | 125 | 0.0 | 2.0 | 0.00 | 0.00 | 0.00 | 39 | 1003.8 |
| 20260507053032 | 64 | 125 | 0.0 | 3.0 | 0.00 | 0.00 | 0.00 | 42 | 1003.8 |
| 20260507051530 | 64 | 125 | 0.0 | 7.0 | 0.00 | 0.00 | 0.00 | 40 | 1003.9 |
| 20260507050049 | 64 | 119 | 3.0 | 6.0 | 0.00 | 0.00 | 0.00 | 41 | 1003.8 |
| 20260507044525 | 65 | 111 | 2.0 | 8.0 | 0.00 | 0.00 | 0.00 | 34 | 1003.8 |
| 20260507043025 | 66 | 102 | 4.0 | 7.0 | 0.00 | 0.00 | 0.00 | 29 | 1003.9 |
| 20260507041526 | 66 | 109 | 1.0 | 6.0 | 0.00 | 0.00 | 0.00 | 26 | 1003.8 |
| 20260507040024 | 68 | 28 | 2.0 | 5.0 | 0.00 | 0.00 | 0.00 | 22 | 1003.5 |
| 20260507034526 | 69 | 175 | 1.0 | 7.0 | 0.00 | 0.00 | 0.00 | 22 | 1003.2 |
| 20260507033029 | 69 | 191 | 5.0 | 10.0 | 0.00 | 0.00 | 0.00 | 21 | 1003.1 |
| 20260507031517 | 70 | 189 | 5.0 | 9.0 | 0.00 | 0.00 | 0.00 | 19 | 1003.0 |
| 20260507030016 | 70 | 190 | 4.0 | 6.0 | 0.00 | 0.00 | 0.00 | 18 | 1002.7 |
| 20260507024517 | 70 | 190 | 4.0 | 6.0 | 0.00 | 0.00 | 0.00 | 18 | 1002.5 |
| 20260507023015 | 70 | 197 | 4.0 | 6.0 | 0.00 | 0.00 | 0.00 | 18 | 1002.2 |
| 20260507021521 | 70 | 209 | 3.0 | 5.0 | 0.00 | 0.00 | 0.00 | 18 | 1002.1 |
| 20260507020020 | 71 | 209 | 3.0 | 6.0 | 0.00 | 0.00 | 0.00 | 19 | 1001.7 |
| 20260507014519 | 71 | 207 | 4.0 | 6.0 | 0.00 | 0.00 | 0.00 | 18 | 1001.5 |
| 20260507013012 | 72 | 224 | 3.0 | 6.0 | 0.00 | 0.00 | 0.00 | 18 | 1001.3 |
| 20260507011517 | 74 | 242 | 5.0 | 8.0 | 0.00 | 0.00 | 0.00 | 17 | 1001.2 |
| 20260507010026 | 75 | 252 | 6.0 | 10.0 | 0.00 | 0.00 | 0.00 | 16 | 1001.0 |
| 20260507004510 | 75 | 240 | 6.0 | 10.0 | 0.00 | 0.00 | 0.00 | 16 | 1000.9 |
| 20260507003009 | 74 | 244 | 5.0 | 11.0 | 0.00 | 0.00 | 0.00 | 17 | 1000.8 |
| 20260507001509 | 74 | 252 | 7.0 | 12.0 | 0.00 | 0.00 | 0.00 | 17 | 1000.6 |
| 20260507000008 | 74 | 240 | 8.0 | 15.0 | 0.00 | 0.00 | 0.00 | 16 | 1000.6 |
| 20260506234508 | 75 | 244 | 6.0 | 12.0 | 0.00 | 0.00 | 0.00 | 15 | 1000.6 |
| 20260506233008 | 75 | 325 | 6.0 | 13.0 | 0.00 | 0.00 | 0.00 | 16 | 1000.6 |
| 20260506231506 | 75 | 290 | 8.0 | 15.0 | 0.00 | 0.00 | 0.00 | 15 | 1000.6 |
| 20260506230005 | 75 | 268 | 9.0 | 16.0 | 0.00 | 0.00 | 0.00 | 15 | 1000.5 |
| 20260506224505 | 76 | 249 | 11.0 | 16.0 | 0.00 | 0.00 | 0.00 | 14 | 1000.5 |
| 20260506223004 | 76 | 290 | 11.0 | 17.0 | 0.00 | 0.00 | 0.00 | 13 | 1000.5 |
| 20260506221504 | 77 | 274 | 8.0 | 16.0 | 0.00 | 0.00 | 0.00 | 13 | 1000.4 |
| 20260506220003 | 77 | 271 | 7.0 | 16.0 | 0.00 | 0.00 | 0.00 | 14 | 1000.3 |
| 20260506214502 | 77 | 297 | 9.0 | 19.0 | 0.00 | 0.00 | 0.00 | 14 | 1000.4 |
| 20260506213001 | 77 | 279 | 10.0 | 17.0 | 0.00 | 0.00 | 0.00 | 13 | 1000.5 |
| 20260506211559 | 77 | 251 | 8.0 | 13.0 | 0.00 | 0.00 | 0.00 | 16 | 1000.6 |
| 20260506210057 | 77 | 312 | 10.0 | 25.0 | 0.00 | 0.00 | 0.00 | 16 | 1000.8 |
| 20260506204601 | 76 | 235 | 2.0 | 9.0 | 0.00 | 0.00 | 0.00 | 19 | 1001.0 |
| 20260506203056 | 76 | 246 | 8.0 | 18.0 | 0.00 | 0.00 | 0.00 | 18 | 1001.3 |
| 20260506201557 | 77 | 290 | 8.0 | 14.0 | 0.00 | 0.00 | 0.00 | 18 | 1001.2 |
| 20260506200108 | 76 | 274 | 5.0 | 11.0 | 0.00 | 0.00 | 0.00 | 19 | 1001.4 |
| 20260506194606 | 75 | 259 | 7.0 | 14.0 | 0.00 | 0.00 | 0.00 | 19 | 1001.6 |
| 20260506193051 | 75 | 252 | 3.0 | 13.0 | 0.00 | 0.00 | 0.00 | 18 | 1001.8 |
| 20260506191550 | 76 | 274 | 9.0 | 18.0 | 0.00 | 0.00 | 0.00 | 17 | 1001.8 |
| 20260506190046 | 75 | 244 | 6.0 | 23.0 | 0.00 | 0.00 | 0.00 | 19 | 1001.8 |
| 20260506184546 | 74 | 309 | 9.0 | 14.0 | 0.00 | 0.00 | 0.00 | 23 | 1002.0 |
| 20260506183059 | 73 | 251 | 3.0 | 13.0 | 0.00 | 0.00 | 0.00 | 21 | 1002.1 |
| 20260506181549 | 73 | 355 | 4.0 | 13.0 | 0.00 | 0.00 | 0.00 | 25 | 1002.3 |
| 20260506180040 | 73 | 355 | 3.0 | 13.0 | 0.00 | 0.00 | 0.00 | 24 | 1002.3 |
| 20260506174539 | 72 | 266 | 8.0 | 14.0 | 0.00 | 0.00 | 0.00 | 24 | 1002.5 |
| 20260506173040 | 72 | 256 | 6.0 | 13.0 | 0.00 | 0.00 | 0.00 | 25 | 1002.5 |
| 20260506171543 | 71 | 284 | 2.0 | 14.0 | 0.00 | 0.00 | 0.00 | 26 | 1002.6 |
| 20260506170043 | 71 | 286 | 8.0 | 14.0 | 0.00 | 0.00 | 0.00 | 27 | 1002.5 |
| 20260506164539 | 70 | 241 | 3.0 | 13.0 | 0.00 | 0.00 | 0.00 | 28 | 1002.5 |
| 20260506163032 | 69 | 292 | 7.0 | 11.0 | 0.00 | 0.00 | 0.00 | 29 | 1002.3 |
| 20260506161537 | 69 | 285 | 5.0 | 12.0 | 0.00 | 0.00 | 0.00 | 30 | 1002.2 |
| 20260506160039 | 68 | 286 | 6.0 | 11.0 | 0.00 | 0.00 | 0.00 | 30 | 1002.0 |
| 20260506154530 | 68 | 288 | 6.0 | 12.0 | 0.00 | 0.00 | 0.00 | 30 | 1002.0 |
| 20260506153024 | 68 | 275 | 4.0 | 13.0 | 0.00 | 0.00 | 0.00 | 30 | 1001.9 |
| 20260506151532 | 68 | 298 | 7.0 | 15.0 | 0.00 | 0.00 | 0.00 | 31 | 1001.7 |
| 20260506150029 | 67 | 278 | 6.0 | 11.0 | 0.00 | 0.00 | 0.00 | 32 | 1001.6 |
| 20260506144521 | 66 | 260 | 5.0 | 9.0 | 0.00 | 0.00 | 0.00 | 34 | 1001.5 |
| 20260506143037 | 65 | 288 | 2.0 | 7.0 | 0.00 | 0.00 | 0.00 | 35 | 1001.5 |
| 20260506141520 | 65 | 289 | 2.0 | 5.0 | 0.00 | 0.00 | 0.00 | 36 | 1001.6 |
| 20260506140019 | 64 | 300 | 2.0 | 4.0 | 0.00 | 0.00 | 0.00 | 36 | 1001.4 |
| 20260506134517 | 64 | 277 | 0.0 | 1.0 | 0.00 | 0.00 | 0.00 | 35 | 1001.3 |
| 20260506133018 | 63 | 286 | 0.0 | 3.0 | 0.00 | 0.00 | 0.00 | 35 | 1001.2 |
| 20260506131516 | 63 | 286 | 2.0 | 4.0 | 0.00 | 0.00 | 0.00 | 35 | 1001.1 |
| 20260506130011 | 63 | 276 | 1.0 | 3.0 | 0.00 | 0.00 | 0.00 | 35 | 1000.7 |
| 20260506124509 | 63 | 286 | 1.0 | 3.0 | 0.00 | 0.00 | 0.00 | 35 | 1000.6 |